TimePST,TemperatureF,Dew PointF,Humidity,Sea Level PressureIn,VisibilityMPH,Wind Direction,Wind SpeedMPH,Gust SpeedMPH,PrecipitationIn,Events,Conditions,WindDirDegrees,DateUTC
12:15 AM,44.6,44.6,100,30.29,10.0,SE,5.8,-,N/A,,Unknown,140,2012-12-07 08:15:00
12:35 AM,44.6,44.6,100,30.28,10.0,SE,6.9,-,N/A,,Unknown,130,2012-12-07 08:35:00
12:55 AM,44.6,44.6,100,30.28,10.0,SE,5.8,-,N/A,,Unknown,140,2012-12-07 08:55:00
1:15 AM,44.6,44.6,100,30.28,10.0,SSE,6.9,-,N/A,,Unknown,150,2012-12-07 09:15:00
1:35 AM,44.6,42.8,93,30.27,10.0,SSE,6.9,-,N/A,,Unknown,150,2012-12-07 09:35:00
1:55 AM,44.6,42.8,93,30.27,10.0,SSE,9.2,-,N/A,,Unknown,150,2012-12-07 09:55:00
2:15 AM,44.6,42.8,93,30.27,10.0,SSE,8.1,-,N/A,,Unknown,160,2012-12-07 10:15:00
2:35 AM,44.6,44.6,100,30.27,10.0,SSE,8.1,-,N/A,,Unknown,160,2012-12-07 10:35:00
2:55 AM,44.6,42.8,93,30.27,10.0,SSE,8.1,-,N/A,,Unknown,150,2012-12-07 10:55:00
3:15 AM,44.6,44.6,100,30.27,10.0,SE,9.2,-,N/A,,Unknown,140,2012-12-07 11:15:00
3:35 AM,44.6,44.6,100,30.26,10.0,SSE,8.1,-,N/A,,Unknown,150,2012-12-07 11:35:00
3:55 AM,44.6,44.6,100,30.26,10.0,SSE,6.9,-,N/A,,Unknown,160,2012-12-07 11:55:00
4:15 AM,44.6,42.8,93,30.25,10.0,SSE,8.1,-,N/A,,Unknown,150,2012-12-07 12:15:00
4:35 AM,44.6,44.6,100,30.26,10.0,SSE,8.1,-,N/A,,Unknown,150,2012-12-07 12:35:00
4:55 AM,44.6,44.6,100,30.26,4.0,SSE,8.1,-,N/A,,Unknown,150,2012-12-07 12:55:00
5:15 AM,44.6,44.6,100,30.26,5.0,SSE,8.1,-,0.02,,Unknown,150,2012-12-07 13:15:00
5:35 AM,44.6,44.6,100,30.25,10.0,SSE,8.1,-,0.02,,Unknown,160,2012-12-07 13:35:00
5:55 AM,44.6,44.6,100,30.25,10.0,SE,8.1,-,0.02,,Unknown,140,2012-12-07 13:55:00
6:15 AM,44.6,44.6,100,30.25,10.0,SE,8.1,-,N/A,,Unknown,140,2012-12-07 14:15:00
6:35 AM,44.6,44.6,100,30.25,10.0,SE,8.1,-,N/A,,Unknown,140,2012-12-07 14:35:00
6:55 AM,44.6,44.6,100,30.26,10.0,SE,5.8,-,N/A,,Mostly Cloudy,140,2012-12-07 14:55:00
7:15 AM,44.6,44.6,100,30.26,10.0,SSE,6.9,-,N/A,,Mostly Cloudy,150,2012-12-07 15:15:00
7:35 AM,44.6,44.6,100,30.26,10.0,SSE,8.1,-,N/A,,Mostly Cloudy,150,2012-12-07 15:35:00
7:55 AM,44.6,42.8,93,30.26,9.0,SSE,9.2,-,N/A,,Mostly Cloudy,150,2012-12-07 15:55:00
8:15 AM,44.6,42.8,93,30.26,4.0,SSE,6.9,-,0.02,,Mostly Cloudy,150,2012-12-07 16:15:00
8:35 AM,44.6,44.6,100,30.27,4.0,Calm,Calm,-,0.03,,Mostly Cloudy,0,2012-12-07 16:35:00
8:55 AM,46.4,46.4,100,30.27,3.0,SE,4.6,-,0.03,,Overcast,140,2012-12-07 16:55:00
9:15 AM,46.4,46.4,100,30.27,3.0,SSE,4.6,-,N/A,,Overcast,150,2012-12-07 17:15:00
9:35 AM,46.4,44.6,93,30.27,10.0,SE,6.9,-,N/A,,Mostly Cloudy,130,2012-12-07 17:35:00
9:55 AM,46.4,44.6,93,30.28,10.0,SE,6.9,-,N/A,,Mostly Cloudy,140,2012-12-07 17:55:00
10:15 AM,46.4,44.6,93,30.28,10.0,SE,8.1,-,N/A,,Mostly Cloudy,140,2012-12-07 18:15:00
10:35 AM,48.2,46.4,93,30.28,10.0,SE,9.2,-,N/A,,Mostly Cloudy,140,2012-12-07 18:35:00
10:55 AM,48.2,48.2,100,30.27,10.0,SE,8.1,-,N/A,,Mostly Cloudy,130,2012-12-07 18:55:00
11:15 AM,48.2,48.2,100,30.27,3.0,SSE,6.9,-,0.01,,Mostly Cloudy,150,2012-12-07 19:15:00
11:35 AM,48.2,48.2,100,30.26,3.0,SSE,6.9,-,0.01,,Mostly Cloudy,150,2012-12-07 19:35:00
11:55 AM,48.2,48.2,100,30.24,3.0,SE,8.1,-,0.02,,Mostly Cloudy,140,2012-12-07 19:55:00
12:15 PM,48.2,48.2,100,30.24,3.0,SSE,6.9,-,N/A,,Mostly Cloudy,160,2012-12-07 20:15:00
12:35 PM,50.0,50.0,100,30.24,3.0,SSW,5.8,-,0.01,,Mostly Cloudy,200,2012-12-07 20:35:00
12:55 PM,50.0,48.2,94,30.25,3.0,SW,5.8,-,0.01,,Mostly Cloudy,220,2012-12-07 20:55:00
1:15 PM,51.8,48.2,88,30.24,3.0,SSW,4.6,-,0.01,,Mostly Cloudy,200,2012-12-07 21:15:00
1:35 PM,51.8,48.2,88,30.25,3.0,WSW,10.4,-,0.01,,Mostly Cloudy,240,2012-12-07 21:35:00
1:55 PM,50.0,48.2,94,30.25,7.0,SW,9.2,-,0.01,,Mostly Cloudy,230,2012-12-07 21:55:00
2:15 PM,50.0,48.2,94,30.24,8.0,SW,6.9,-,N/A,,Mostly Cloudy,220,2012-12-07 22:15:00
2:35 PM,51.8,48.2,88,30.24,10.0,WSW,8.1,-,N/A,,Mostly Cloudy,240,2012-12-07 22:35:00
2:55 PM,51.8,48.2,88,30.24,10.0,WNW,10.4,-,N/A,,Mostly Cloudy,290,2012-12-07 22:55:00
3:15 PM,50.0,48.2,94,30.25,10.0,WNW,9.2,-,N/A,,Mostly Cloudy,300,2012-12-07 23:15:00
3:35 PM,51.8,46.4,82,30.25,10.0,West,6.9,-,N/A,,Mostly Cloudy,270,2012-12-07 23:35:00
3:55 PM,51.8,46.4,82,30.25,10.0,West,5.8,-,N/A,,Mostly Cloudy,260,2012-12-07 23:55:00
4:15 PM,51.8,48.2,88,30.26,10.0,West,4.6,-,N/A,,Mostly Cloudy,260,2012-12-08 00:15:00
4:35 PM,51.8,48.2,88,30.25,10.0,SW,3.5,-,N/A,,Mostly Cloudy,220,2012-12-08 00:35:00
5:15 PM,50.0,46.4,87,30.25,10.0,Calm,Calm,-,N/A,,Mostly Cloudy,0,2012-12-08 01:15:00
5:35 PM,50.0,46.4,87,30.24,10.0,West,4.6,-,N/A,,Mostly Cloudy,280,2012-12-08 01:35:00
5:55 PM,48.2,46.4,93,30.24,9.0,West,8.1,-,N/A,,Mostly Cloudy,280,2012-12-08 01:55:00
6:15 PM,48.2,46.4,93,30.24,10.0,Calm,Calm,-,N/A,,Mostly Cloudy,0,2012-12-08 02:15:00
6:35 PM,48.2,46.4,93,30.25,10.0,Calm,Calm,-,N/A,,Mostly Cloudy,0,2012-12-08 02:35:00
6:55 PM,50.0,48.2,94,30.25,10.0,WNW,6.9,-,N/A,,Mostly Cloudy,300,2012-12-08 02:55:00
7:15 PM,50.0,48.2,94,30.26,10.0,WNW,10.4,-,N/A,,Overcast,290,2012-12-08 03:15:00
7:55 PM,48.2,46.4,93,30.27,9.0,Calm,Calm,-,0.01,,Overcast,0,2012-12-08 03:55:00
8:15 PM,48.2,48.2,100,30.27,10.0,NNW,4.6,-,N/A,,Overcast,330,2012-12-08 04:15:00
8:35 PM,48.2,48.2,100,30.27,10.0,North,5.8,-,N/A,,Overcast,350,2012-12-08 04:35:00
8:55 PM,48.2,48.2,100,30.26,10.0,Calm,Calm,-,N/A,,Overcast,0,2012-12-08 04:55:00
9:15 PM,48.2,48.2,100,30.27,10.0,NNE,6.9,-,N/A,,Overcast,20,2012-12-08 05:15:00
9:35 PM,48.2,46.4,93,30.27,10.0,NE,4.6,-,N/A,,Overcast,40,2012-12-08 05:35:00
9:55 PM,46.4,44.6,93,30.27,10.0,NE,3.5,-,N/A,,Overcast,50,2012-12-08 05:55:00
10:15 PM,46.4,46.4,100,30.27,10.0,Calm,Calm,-,N/A,,Unknown,0,2012-12-08 06:15:00
10:35 PM,46.4,46.4,100,30.26,10.0,Calm,Calm,-,N/A,,Unknown,0,2012-12-08 06:35:00
10:55 PM,46.4,44.6,93,30.26,10.0,Calm,Calm,-,N/A,,Unknown,0,2012-12-08 06:55:00
11:15 PM,46.4,44.6,93,30.27,10.0,Calm,Calm,-,N/A,,Unknown,0,2012-12-08 07:15:00
11:35 PM,46.4,46.4,100,30.28,10.0,NE,3.5,-,N/A,,Unknown,40,2012-12-08 07:35:00
11:55 PM,46.4,46.4,100,30.28,10.0,NNE,3.5,-,N/A,,Unknown,30,2012-12-08 07:55:00